Wind_Speed
5 4 4 4 4 4 3 2 3 3 3 3 3 3 3 3 3 3 3 3 2 1 1 2 2 3 4 4 5 4 4 5 5 5 6 6 6 5 5 6 6 6 7
3 4 5 3 3 3 2 1 1 2 2 2 2 3 3 3 3 4 4 3 2 2 2 3 3 4 5 5 6 6 6 5 6 6 6 6 7 6 6 6 7 7 8
4 3 4 3 2 2 2 1 0 1 1 2 2 3 3 4 3 4 4 4 3 3 3 4 5 6 6 6 6 7 7 6 6 7 7 7 7 7 7 8 8 8 9
5 4 3 3 3 3 2 2 1 0 1 1 2 3 4 4 5 5 5 5 5 5 5 6 7 7 7 7 7 8 8 8 8 9 9 9 9 8 9 9 9 9 9
6 5 4 3 3 4 5 4 3 2 2 3 3 4 5 5 6 6 6 6 6 6 7 7 8 8 8 8 8 9 9 10 10 11 11 10 10 10 10 10 10 10 11
7 7 6 5 4 5 6 6 5 5 5 5 5 5 5 6 6 7 7 7 7 8 8 9 9 9 10 10 10 10 11 11 11 11 11 12 12 11 11 11 11 12 12
9 8 7 7 7 7 8 8 8 7 7 7 7 7 7 7 8 8 9 9 9 10 10 10 11 11 11 11 11 12 12 11 12 13 13 13 13 13 14 13 13 13 13
11 10 9 9 10 10 10 10 10 10 9 9 9 9 8 9 10 10 11 11 12 12 12 12 12 12 12 13 13 13 13 13 13 13 14 15 15 15 16 15 15 15 15
12 12 11 11 11 11 12 12 12 12 12 11 11 11 11 11 12 12 13 13 14 14 14 14 14 15 15 15 15 15 14 15 15 15 16 17 17 17 18 17 17 17 17
14 14 14 13 11 11 12 14 14 13 13 13 13 13 14 14 14 15 15 16 16 17 17 17 17 17 17 17 17 16 16 17 17 18 18 18 18 18 19 19 19 19 19
16 15 15 16 15 14 14 14 15 16 16 16 15 16 16 16 16 17 18 18 19 19 20 20 20 20 19 19 19 19 18 18 18 18 18 18 19 19 19 20 21 21 21
18 18 17 18 18 18 18 18 17 17 18 18 18 18 19 19 19 20 20 20 20 21 22 22 22 22 22 22 21 21 20 20 20 20 20 20 20 21 21 20 20 20 21
21 21 20 20 20 21 21 20 20 20 20 20 20 21 22 23 23 23 23 23 24 23 23 23 24 24 24 24 23 23 23 22 22 22 22 22 22 22 21 21 21 21 21
24 24 24 22 22 22 23 23 23 23 23 23 23 23 24 24 25 26 26 25 26 25 25 25 25 25 25 25 26 25 25 24 24 24 24 24 24 24 23 24 24 24 24
24 25 26 25 24 24 25 25 26 26 26 26 26 26 26 26 27 27 27 28 27 27 26 26 26 27 27 27 27 27 27 26 25 25 25 25 25 25 25 26 26 27 27
25 25 25 26 27 27 27 27 27 28 28 29 29 29 29 29 29 29 30 30 29 29 29 28 28 28 28 27 27 27 28 28 27 27 26 26 26 27 27 27 28 28 28
27 27 27 27 28 28 29 30 30 30 30 31 31 32 32 31 31 32 32 32 32 32 31 31 31 30 29 29 29 29 29 29 29 29 28 27 28 28 28 29 30 30 30
30 31 31 30 30 30 31 32 33 32 32 33 33 34 33 33 34 34 33 34 34 34 33 32 32 31 31 31 31 31 31 31 30 30 30 30 30 30 31 31 31 32 32
33 33 33 33 33 33 33 33 34 34 34 34 34 35 35 36 36 35 35 35 35 34 34 33 32 32 32 33 33 33 33 32 31 32 32 32 32 32 33 33 32 32 33
34 35 35 36 35 36 36 36 36 36 35 35 35 36 37 37 37 37 37 36 35 34 34 33 32 32 33 34 35 35 35 35 35 35 35 35 34 34 34 34 34 34 34
37 37 37 39 38 38 38 38 38 38 37 36 37 37 37 38 38 37 38 37 36 35 34 33 32 33 33 34 35 36 36 37 37 36 36 35 35 35 35 35 35 35 35
38 39 40 40 40 40 40 39 39 40 39 39 38 38 38 39 38 38 37 37 36 35 36 34 33 33 34 35 35 36 37 37 38 38 37 36 36 36 36 37 37 37 36
40 40 41 41 42 41 41 41 41 40 41 41 40 40 39 38 37 37 37 36 35 35 34 34 34 34 35 35 35 36 37 37 37 37 37 37 37 38 38 38 38 37 36
40 40 41 41 41 41 41 41 41 41 41 40 39 38 37 37 37 37 37 37 37 35 35 35 34 35 35 35 36 36 37 38 38 38 38 38 38 38 38 37 36 36 35
39 39 40 40 40 40 41 41 40 40 39 39 37 37 37 36 37 37 37 38 37 36 35 34 34 35 35 35 35 36 36 37 37 37 38 37 37 37 37 36 36 36 36
39 40 40 40 40 40 39 40 40 39 40 39 38 38 37 37 37 37 37 38 37 35 35 35 35 35 35 35 36 36 36 35 35 36 36 36 36 35 35 35 35 36 36
Wind_Direction
14 17 13 17 22 25 34 59 77 88 103 116 127 140 157 160 162 167 165 159 165 188 262 308 313 311 312 316 316 315 308 306 305 305 310 319 319 310 298 295 294 292 293
355 356 352 351 7 7 12 46 86 95 109 127 142 144 160 169 181 191 193 194 201 229 265 295 306 311 311 308 305 307 303 300 299 300 303 305 307 302 294 292 292 291 292
316 319 327 323 307 324 328 311 23 110 128 149 166 171 172 177 192 209 213 218 236 252 277 287 295 301 303 302 302 297 297 297 296 294 293 294 296 295 295 293 290 290 291
293 290 289 292 285 275 272 287 279 273 208 191 193 195 199 201 209 219 223 239 253 264 279 288 291 292 296 298 299 293 291 288 288 290 291 292 293 293 292 291 291 289 288
275 268 265 276 277 265 259 256 251 246 245 244 229 220 214 218 226 233 242 253 260 267 276 286 289 291 295 296 292 288 287 285 285 287 288 289 290 289 289 290 289 289 289
264 254 250 262 267 263 258 254 254 252 252 248 240 238 233 235 242 247 250 256 264 270 274 281 285 288 291 294 289 286 287 286 284 285 287 288 288 286 287 287 287 287 287
260 260 256 263 263 261 255 251 252 251 248 244 241 243 246 246 247 251 253 259 265 270 274 277 282 286 288 290 291 289 288 286 283 282 285 287 287 286 284 284 285 285 285
262 263 261 266 269 263 253 250 252 251 249 247 245 244 254 257 256 258 260 262 265 270 276 279 281 284 287 289 291 291 290 288 285 283 284 284 282 283 285 281 280 283 284
267 268 270 269 268 265 254 251 254 255 253 252 252 255 261 262 262 263 263 264 267 271 276 279 279 282 284 285 287 289 288 287 289 286 285 283 281 280 280 280 279 279 280
271 271 273 274 272 269 261 253 253 255 256 257 257 260 262 262 264 264 264 265 267 270 273 275 276 278 279 282 284 285 287 288 288 288 288 288 287 286 283 280 278 277 279
267 273 274 273 273 271 268 263 258 257 260 261 261 263 266 266 266 267 268 270 268 269 270 272 273 274 275 278 281 282 284 286 287 286 287 287 287 288 287 283 281 281 281
264 268 271 272 272 273 272 269 267 265 265 265 264 267 270 270 269 270 270 271 271 271 269 270 272 273 275 276 277 279 280 282 284 286 287 288 288 288 288 286 286 285 285
264 267 269 273 272 272 273 274 270 270 271 271 268 269 271 271 271 272 271 272 273 273 271 270 272 272 274 276 276 277 278 280 282 283 285 287 287 288 285 284 286 287 287
268 270 271 272 272 272 273 274 272 271 271 271 272 272 272 272 273 272 271 273 276 274 272 272 274 274 274 274 274 275 276 277 279 281 283 285 285 285 283 284 284 284 284
271 272 272 271 272 272 273 272 271 271 271 270 270 270 270 272 274 276 274 275 275 275 274 274 274 274 274 274 274 274 274 275 276 279 281 284 284 282 281 282 283 282 283
273 273 272 271 271 273 273 272 271 271 272 271 270 271 270 271 274 277 278 278 277 277 276 274 273 273 273 273 275 276 275 275 274 276 279 282 283 280 280 282 282 282 282
270 271 272 272 270 272 273 271 270 269 271 271 271 272 273 273 275 276 276 277 278 278 277 274 272 271 271 272 273 274 275 275 274 275 278 281 283 282 280 281 281 281 282
271 271 271 270 268 269 271 271 269 269 270 271 271 271 274 274 275 277 277 278 277 277 275 274 270 269 270 271 271 272 272 273 274 276 277 279 280 282 282 282 281 280 281
271 271 271 271 269 269 271 271 271 269 269 270 272 274 273 274 275 276 276 276 277 276 273 271 268 268 269 271 271 271 271 271 272 275 276 277 278 280 282 283 282 281 281
271 272 273 273 272 271 270 271 270 269 270 271 271 273 274 275 276 276 277 276 276 274 271 269 267 269 270 271 271 271 270 271 272 274 275 275 277 279 280 282 282 282 282
271 272 273 274 275 274 274 272 271 272 272 274 274 273 275 277 278 277 277 275 275 273 271 270 270 271 272 272 272 271 270 272 273 273 273 274 276 278 279 280 281 282 282
271 273 274 274 274 274 274 274 274 273 273 274 274 275 277 277 277 277 277 275 274 274 271 268 269 271 273 273 272 271 271 272 272 272 273 274 275 277 277 279 279 281 280
272 273 273 274 274 274 274 274 273 273 273 272 273 274 274 275 276 276 275 275 274 274 272 270 270 271 273 274 273 271 271 273 272 273 273 274 275 276 277 278 279 280 281
271 272 273 273 273 273 272 272 272 272 272 272 272 272 271 273 275 276 275 275 275 273 272 271 272 273 274 274 274 273 273 272 272 271 272 274 275 277 278 278 279 280 281
271 271 271 272 273 273 273 273 272 272 271 271 272 272 272 271 273 274 274 274 274 274 272 270 272 274 274 273 274 274 273 273 272 272 273 273 275 278 278 277 279 280 281
271 272 272 272 271 271 271 270 270 270 270 270 269 269 270 270 272 272 272 272 270 271 271 271 272 273 274 274 273 273 273 273 273 274 274 273 274 275 275 276 278 279 282
Height
5903 5902 5902 5902 5902 5901 5901 5901 5900 5900 5900 5900 5901 5901 5902 5903 5903 5904 5904 5905 5906 5906 5906 5907 5906 5906 5906 5905 5905 5904 5904 5904 5903 5903 5903 5902 5902 5901 5901 5901 5901 5901 5900
5902 5902 5902 5901 5901 5901 5901 5901 5901 5901 5900 5900 5901 5901 5902 5903 5903 5904 5904 5905 5905 5906 5906 5906 5906 5906 5905 5904 5904 5903 5903 5903 5902 5902 5902 5901 5901 5900 5900 5900 5899 5899 5899
5902 5902 5902 5901 5901 5900 5900 5900 5901 5901 5900 5900 5901 5901 5902 5902 5903 5903 5904 5905 5905 5905 5905 5905 5905 5904 5904 5903 5902 5902 5902 5901 5901 5901 5901 5900 5900 5899 5899 5898 5897 5897 5897
5901 5900 5901 5900 5900 5900 5900 5900 5900 5900 5900 5900 5900 5901 5901 5902 5902 5903 5903 5904 5904 5904 5904 5904 5903 5903 5902 5901 5901 5900 5899 5899 5899 5899 5898 5898 5898 5897 5897 5896 5895 5895 5894
5899 5899 5899 5899 5899 5898 5898 5899 5899 5899 5899 5899 5899 5899 5900 5900 5901 5901 5902 5902 5902 5902 5902 5902 5902 5901 5900 5899 5899 5898 5897 5897 5897 5896 5896 5896 5895 5894 5894 5894 5893 5892 5892
5898 5897 5897 5897 5897 5897 5897 5897 5897 5897 5898 5898 5898 5898 5898 5899 5899 5900 5900 5901 5901 5901 5901 5900 5900 5899 5898 5897 5897 5896 5895 5894 5894 5893 5893 5893 5892 5892 5891 5890 5890 5889 5889
5896 5896 5895 5895 5895 5894 5894 5894 5895 5895 5896 5896 5896 5896 5897 5897 5897 5898 5898 5898 5898 5898 5898 5898 5898 5897 5896 5895 5894 5893 5892 5891 5891 5890 5890 5889 5889 5888 5888 5887 5886 5886 5885
5893 5893 5893 5892 5892 5891 5891 5892 5893 5893 5893 5893 5893 5894 5894 5895 5895 5895 5895 5896 5895 5895 5895 5895 5895 5894 5894 5893 5891 5890 5889 5888 5887 5887 5886 5886 5885 5884 5884 5883 5883 5882 5882
5890 5890 5890 5890 5889 5889 5889 5889 5889 5890 5890 5890 5891 5891 5892 5892 5892 5892 5892 5892 5892 5892 5892 5891 5891 5891 5890 5889 5888 5887 5886 5885 5884 5883 5883 5882 5881 5880 5879 5879 5878 5878 5877
5887 5887 5887 5886 5886 5886 5886 5886 5886 5887 5887 5887 5887 5888 5888 5888 5888 5888 5888 5888 5888 5888 5888 5887 5887 5886 5886 5885 5884 5883 5882 5882 5880 5879 5878 5877 5876 5876 5875 5874 5874 5873 5873
5883 5883 5883 5883 5883 5883 5883 5883 5883 5883 5883 5883 5883 5883 5884 5884 5884 5884 5884 5884 5883 5883 5883 5883 5882 5881 5881 5880 5880 5879 5878 5877 5876 5874 5874 5873 5872 5871 5870 5869 5869 5868 5868
5878 5878 5878 5878 5878 5878 5879 5879 5879 5879 5879 5879 5879 5879 5879 5879 5879 5879 5878 5878 5878 5877 5877 5877 5876 5876 5875 5874 5874 5873 5873 5872 5871 5870 5869 5868 5867 5866 5865 5864 5863 5863 5862
5873 5873 5873 5873 5873 5873 5873 5873 5874 5874 5874 5874 5873 5873 5873 5873 5873 5873 5873 5872 5872 5871 5871 5870 5870 5869 5869 5868 5867 5867 5867 5866 5865 5865 5864 5863 5862 5861 5859 5859 5858 5857 5856
5867 5867 5867 5867 5867 5867 5867 5867 5867 5868 5867 5867 5867 5867 5867 5867 5867 5866 5866 5866 5865 5864 5864 5864 5863 5862 5862 5861 5861 5860 5860 5859 5859 5858 5858 5857 5856 5855 5854 5853 5852 5851 5850
5861 5861 5861 5861 5861 5861 5861 5861 5861 5861 5861 5861 5861 5861 5860 5860 5859 5859 5858 5858 5858 5857 5857 5857 5856 5855 5855 5854 5854 5854 5853 5853 5852 5852 5851 5850 5849 5848 5847 5846 5845 5844 5843
5854 5854 5854 5854 5854 5854 5854 5853 5854 5854 5853 5853 5853 5853 5853 5852 5852 5852 5851 5850 5850 5849 5849 5849 5848 5848 5847 5847 5846 5846 5846 5845 5845 5844 5843 5843 5842 5840 5840 5839 5838 5837 5836
5846 5846 5846 5846 5846 5845 5845 5844 5845 5845 5845 5845 5845 5844 5844 5843 5844 5843 5842 5841 5841 5841 5840 5840 5840 5840 5839 5839 5839 5838 5838 5837 5837 5836 5836 5835 5834 5833 5832 5831 5830 5828 5827
5838 5838 5838 5838 5837 5837 5836 5836 5836 5836 5836 5836 5835 5835 5834 5834 5834 5833 5833 5832 5832 5831 5831 5831 5831 5831 5831 5831 5830 5830 5830 5829 5828 5828 5828 5827 5826 5825 5824 5823 5821 5820 5819
5828 5828 5828 5828 5828 5827 5827 5827 5827 5826 5826 5826 5826 5826 5825 5825 5824 5824 5823 5823 5822 5820 5820 5821 5821 5822 5822 5822 5822 5821 5821 5821 5820 5820 5819 5818 5817 5816 5815 5814 5812 5811 5810
5819 5818 5818 5818 5818 5817 5817 5817 5816 5816 5816 5816 5816 5816 5815 5814 5814 5814 5813 5812 5812 5811 5811 5811 5812 5812 5813 5813 5812 5812 5812 5811 5811 5810 5809 5809 5808 5807 5806 5805 5803 5802 5800
5808 5808 5808 5807 5807 5807 5806 5806 5806 5806 5806 5805 5805 5805 5805 5804 5804 5803 5802 5801 5802 5802 5801 5802 5802 5802 5803 5803 5802 5802 5801 5801 5801 5800 5799 5799 5798 5797 5796 5794 5793 5792 5790
5798 5797 5797 5796 5796 5795 5795 5795 5795 5795 5794 5794 5794 5794 5794 5794 5793 5793 5792 5792 5791 5791 5791 5792 5792 5792 5792 5792 5791 5791 5790 5790 5790 5789 5789 5788 5787 5786 5785 5784 5783 5782 5780
5787 5786 5785 5785 5784 5784 5783 5783 5783 5783 5783 5783 5782 5782 5783 5783 5782 5782 5781 5781 5780 5780 5781 5781 5782 5782 5782 5781 5780 5780 5779 5779 5779 5778 5778 5777 5776 5776 5775 5774 5773 5771 5770
5775 5774 5773 5772 5772 5772 5771 5771 5771 5771 5771 5771 5771 5770 5770 5771 5771 5770 5770 5770 5770 5769 5770 5771 5771 5771 5770 5770 5770 5769 5768 5768 5767 5767 5767 5766 5765 5765 5764 5763 5762 5761 5759
5763 5762 5761 5760 5759 5758 5758 5758 5758 5758 5758 5759 5759 5758 5758 5758 5759 5759 5758 5759 5759 5759 5759 5759 5759 5759 5759 5759 5758 5757 5757 5757 5756 5755 5755 5755 5754 5754 5753 5752 5751 5750 5748
5750 5750 5749 5748 5747 5746 5746 5746 5746 5746 5746 5746 5747 5747 5747 5747 5747 5747 5747 5746 5747 5747 5747 5747 5747 5747 5747 5747 5747 5746 5746 5745 5745 5744 5744 5744 5743 5743 5742 5741 5740 5739 5737